date,PM2.5_BAM (ug/m3),PM2.5_T640 / PM2.5_BAM,Group (PM2.5_BAM range)
5/27/2018 0:00,64,0.60,60-65
6/3/2018 21:00,43,0.94,40-45
6/9/2018 19:00,40,1.18,40-45
6/17/2018 16:00,41,0.98,40-45
6/17/2018 18:00,57,0.94,55-60
6/17/2018 19:00,43,0.92,40-45
6/22/2018 17:00,45,1.10,45-50
6/22/2018 18:00,54,0.93,50-55
6/29/2018 21:00,54,0.68,50-55
6/30/2018 20:00,44,1.47,40-45
7/3/2018 18:00,50,0.90,50-55
7/3/2018 19:00,50,1.04,50-55
7/3/2018 20:00,51,0.94,50-55
7/3/2018 23:00,42,0.90,40-45
7/4/2018 8:00,41,0.94,40-45
7/4/2018 9:00,44,0.95,40-45
7/4/2018 10:00,42,1.01,40-45
7/9/2018 7:00,65,1.05,65-70
7/14/2018 19:00,71,0.98,70-75
7/18/2018 20:00,51,1.08,50-55
7/20/2018 19:00,42,0.97,40-45
7/23/2018 2:00,45,0.81,45-50
7/24/2018 20:00,41,1.25,40-45
7/29/2018 15:00,40,0.92,40-45
8/4/2018 15:00,41,1.04,40-45
8/4/2018 16:00,56,1.02,55-60
8/4/2018 17:00,42,0.91,40-45
8/8/2018 18:00,48,0.94,45-50
8/8/2018 19:00,47,0.90,45-50
8/11/2018 12:00,46,0.98,45-50
8/11/2018 13:00,55,0.84,55-60
8/11/2018 14:00,63,0.89,60-65
8/11/2018 15:00,47,0.84,45-50
8/11/2018 16:00,47,0.79,45-50
8/11/2018 18:00,51,0.79,50-55
8/11/2018 21:00,50,0.92,50-55
8/11/2018 22:00,48,0.93,45-50
8/12/2018 0:00,40,0.96,40-45
8/16/2018 17:00,46,1.06,45-50
8/16/2018 18:00,41,0.89,40-45
8/19/2018 9:00,41,0.92,40-45
8/19/2018 12:00,45,0.87,45-50
8/29/2018 9:00,40,0.66,40-45
8/31/2018 10:00,43,0.74,40-45
9/9/2018 16:00,40,1.12,40-45
9/15/2018 16:00,51,0.77,50-55
9/15/2018 17:00,41,1.19,40-45
9/20/2018 15:00,42,0.75,40-45
9/21/2018 9:00,40,0.89,40-45
9/21/2018 16:00,42,1.20,40-45
9/21/2018 17:00,46,1.11,45-50
9/21/2018 19:00,43,0.91,40-45
9/22/2018 15:00,44,0.89,40-45
9/22/2018 16:00,43,1.03,40-45
9/22/2018 17:00,46,1.21,45-50
9/28/2018 17:00,40,0.81,40-45
9/29/2018 12:00,44,1.23,40-45
9/29/2018 13:00,41,1.28,40-45
10/3/2018 18:00,42,0.95,40-45
10/3/2018 19:00,60,1.32,60-65
10/3/2018 20:00,45,1.60,45-50
10/5/2018 12:00,41,1.04,40-45
10/5/2018 17:00,42,0.85,40-45
10/5/2018 18:00,79,0.74,75-80
10/5/2018 19:00,89,0.93,85-90
10/5/2018 20:00,68,1.01,65-70
10/5/2018 21:00,77,0.98,75-80
10/5/2018 22:00,57,1.11,55-60
10/5/2018 23:00,66,1.01,65-70
10/6/2018 0:00,50,1.08,50-55
10/6/2018 1:00,57,0.99,55-60
10/6/2018 2:00,49,1.08,45-50
10/6/2018 3:00,42,1.23,40-45
10/6/2018 6:00,62,0.82,60-65
10/6/2018 7:00,59,1.14,55-60
10/6/2018 8:00,62,1.06,60-65
10/6/2018 9:00,62,1.05,60-65
10/6/2018 10:00,61,1.08,60-65
10/6/2018 11:00,65,0.95,65-70
10/6/2018 12:00,46,1.50,45-50
10/8/2018 19:00,44,0.66,40-45
10/11/2018 19:00,40,0.95,40-45
10/11/2018 20:00,42,1.04,40-45
10/11/2018 21:00,41,0.89,40-45
10/12/2018 7:00,40,0.95,40-45
10/12/2018 8:00,53,0.80,50-55
10/12/2018 9:00,48,1.02,45-50
10/12/2018 10:00,43,1.12,40-45
10/12/2018 17:00,43,0.79,40-45
10/12/2018 18:00,49,0.93,45-50
10/13/2018 8:00,42,1.00,40-45
10/13/2018 9:00,42,1.12,40-45
10/13/2018 10:00,45,1.18,45-50
10/13/2018 12:00,42,1.06,40-45
10/13/2018 13:00,47,1.14,45-50
10/13/2018 14:00,47,1.06,45-50
10/13/2018 15:00,40,1.27,40-45
10/13/2018 17:00,46,0.88,45-50
10/13/2018 18:00,60,0.90,60-65
10/14/2018 0:00,52,0.71,50-55
10/14/2018 10:00,43,1.08,40-45
10/14/2018 12:00,46,1.05,45-50
10/14/2018 14:00,42,1.29,40-45
10/14/2018 16:00,42,1.04,40-45
10/14/2018 17:00,50,0.69,50-55
10/14/2018 18:00,69,0.85,65-70
10/14/2018 20:00,53,0.81,50-55
10/14/2018 21:00,43,0.85,40-45
10/15/2018 8:00,52,0.61,50-55
10/15/2018 9:00,45,1.06,45-50
10/15/2018 17:00,56,0.62,55-60
10/15/2018 18:00,62,0.69,60-65
10/15/2018 19:00,52,0.86,50-55
10/15/2018 20:00,59,0.80,55-60
10/15/2018 21:00,48,0.84,45-50
10/16/2018 7:00,44,0.67,40-45
10/16/2018 8:00,45,0.78,45-50
10/16/2018 9:00,50,0.85,50-55
10/16/2018 10:00,40,1.06,40-45
10/16/2018 17:00,42,0.78,40-45
10/16/2018 18:00,42,0.93,40-45
10/16/2018 20:00,49,0.91,45-50
10/16/2018 21:00,49,0.89,45-50
10/16/2018 22:00,43,0.91,40-45
10/17/2018 7:00,47,0.65,45-50
10/17/2018 8:00,44,0.76,40-45
10/17/2018 9:00,46,0.76,45-50
10/17/2018 16:00,41,0.75,40-45
10/17/2018 17:00,53,0.68,50-55
10/17/2018 18:00,45,0.96,45-50
10/17/2018 19:00,46,0.96,45-50
10/17/2018 20:00,46,0.66,45-50
10/17/2018 21:00,48,0.81,45-50
10/17/2018 22:00,57,0.77,55-60
10/18/2018 7:00,49,0.56,45-50
10/18/2018 9:00,45,0.73,45-50
10/18/2018 11:00,42,0.91,40-45
10/18/2018 15:00,40,0.90,40-45
10/18/2018 16:00,44,0.87,40-45
10/18/2018 17:00,55,0.72,55-60
10/18/2018 18:00,60,0.82,60-65
10/18/2018 19:00,80,0.67,80-85
10/18/2018 20:00,82,0.76,80-85
10/18/2018 21:00,72,0.93,70-75
10/18/2018 22:00,64,0.88,60-65
10/18/2018 23:00,64,0.85,60-65
10/19/2018 0:00,51,0.96,50-55
10/19/2018 1:00,44,1.06,40-45
10/19/2018 2:00,44,1.02,40-45
10/19/2018 3:00,47,0.96,45-50
10/19/2018 4:00,47,0.95,45-50
10/19/2018 5:00,51,0.86,50-55
10/19/2018 6:00,50,0.88,50-55
10/19/2018 7:00,69,0.72,65-70
10/19/2018 8:00,68,0.78,65-70
10/19/2018 9:00,69,0.82,65-70
10/19/2018 10:00,61,0.94,60-65
10/19/2018 11:00,59,0.90,55-60
10/19/2018 12:00,63,0.99,60-65
10/19/2018 13:00,66,0.97,65-70
10/19/2018 14:00,73,0.94,70-75
10/19/2018 15:00,69,0.89,65-70
10/19/2018 16:00,72,0.90,70-75
10/19/2018 17:00,77,0.98,75-80
10/19/2018 18:00,47,0.99,45-50
10/19/2018 19:00,56,0.76,55-60
10/19/2018 20:00,65,0.79,65-70
10/19/2018 21:00,74,0.78,70-75
10/19/2018 22:00,61,1.03,60-65
10/19/2018 23:00,72,0.83,70-75
10/20/2018 0:00,62,1.02,60-65
10/20/2018 1:00,58,0.92,55-60
10/20/2018 2:00,56,1.01,55-60
10/20/2018 3:00,47,0.97,45-50
10/20/2018 4:00,68,0.72,65-70
10/20/2018 5:00,49,1.24,45-50
10/20/2018 10:00,44,0.95,40-45
10/20/2018 13:00,44,0.89,40-45
10/20/2018 20:00,53,0.59,50-55
10/20/2018 21:00,46,1.00,45-50
10/20/2018 22:00,52,0.82,50-55
10/20/2018 23:00,43,0.95,40-45
10/21/2018 1:00,43,0.82,40-45
10/21/2018 2:00,41,0.87,40-45
10/21/2018 3:00,43,0.92,40-45
10/21/2018 5:00,46,0.80,45-50
10/21/2018 6:00,41,0.91,40-45
10/21/2018 7:00,40,0.90,40-45
10/21/2018 10:00,74,0.59,70-75
10/21/2018 11:00,57,1.01,55-60
10/22/2018 15:00,45,0.60,45-50
10/22/2018 17:00,54,0.56,50-55
10/22/2018 19:00,50,0.52,50-55
10/22/2018 20:00,45,0.85,45-50
10/22/2018 21:00,42,0.84,40-45
10/22/2018 22:00,47,0.68,45-50
10/23/2018 0:00,41,0.72,40-45
10/23/2018 15:00,49,0.75,45-50
10/23/2018 16:00,50,0.70,50-55
10/23/2018 17:00,40,0.81,40-45
10/23/2018 18:00,97,0.68,95-100
10/23/2018 19:00,75,0.77,75-80
10/23/2018 20:00,90,0.73,90-95
10/23/2018 21:00,61,0.80,60-65
10/23/2018 22:00,53,0.83,50-55
10/23/2018 23:00,58,0.77,55-60
10/24/2018 0:00,67,0.73,65-70
10/24/2018 1:00,54,0.77,50-55
10/24/2018 2:00,53,0.80,50-55
10/24/2018 3:00,58,0.81,55-60
10/24/2018 4:00,57,0.84,55-60
10/24/2018 5:00,58,0.82,55-60
10/24/2018 6:00,59,0.71,55-60
10/24/2018 7:00,60,0.44,60-65
10/24/2018 8:00,74,0.66,70-75
10/24/2018 9:00,82,0.69,80-85
10/24/2018 10:00,71,0.73,70-75
10/24/2018 11:00,81,0.68,80-85
10/24/2018 12:00,69,0.68,65-70
10/24/2018 13:00,58,0.77,55-60
10/24/2018 14:00,69,0.78,65-70
10/24/2018 15:00,86,0.82,85-90
10/24/2018 17:00,99,0.78,95-100
10/26/2018 0:00,40,0.73,40-45
10/26/2018 6:00,46,0.68,45-50
10/26/2018 7:00,50,0.58,50-55
10/26/2018 8:00,76,0.63,75-80
10/26/2018 9:00,73,0.64,70-75
10/26/2018 10:00,54,0.70,50-55
10/26/2018 11:00,44,0.73,40-45
10/26/2018 18:00,66,0.69,65-70
10/26/2018 19:00,68,0.70,65-70
10/26/2018 20:00,51,0.74,50-55
10/26/2018 21:00,47,0.82,45-50
10/26/2018 22:00,51,0.68,50-55
10/26/2018 23:00,51,0.76,50-55
10/27/2018 0:00,57,0.66,55-60
10/27/2018 1:00,73,0.68,70-75
10/27/2018 2:00,80,0.72,80-85
10/27/2018 3:00,61,0.74,60-65
10/31/2018 17:00,43,0.71,40-45
10/31/2018 18:00,50,0.67,50-55
10/31/2018 19:00,47,0.67,45-50
10/31/2018 20:00,42,0.60,40-45
11/1/2018 9:00,47,0.59,45-50
11/1/2018 11:00,53,0.58,50-55
11/1/2018 12:00,44,0.61,40-45
11/1/2018 13:00,41,0.59,40-45
11/1/2018 17:00,49,0.54,45-50
11/2/2018 12:00,40,0.53,40-45
11/2/2018 14:00,40,0.59,40-45
11/2/2018 16:00,42,0.61,40-45
11/2/2018 17:00,66,0.57,65-70
11/2/2018 18:00,75,0.61,75-80
11/2/2018 19:00,83,0.62,80-85
11/2/2018 20:00,56,0.57,55-60
11/3/2018 17:00,47,0.78,45-50
11/3/2018 18:00,72,0.91,70-75
11/3/2018 19:00,44,0.95,40-45
11/3/2018 20:00,49,0.91,45-50
11/3/2018 21:00,40,1.01,40-45
11/3/2018 22:00,46,0.87,45-50
11/4/2018 9:00,58,0.58,55-60
11/4/2018 10:00,49,0.66,45-50
11/4/2018 11:00,55,0.71,55-60
11/4/2018 12:00,65,0.68,65-70
11/4/2018 13:00,67,0.72,65-70
11/4/2018 14:00,62,0.79,60-65
11/4/2018 15:00,64,0.74,60-65
11/4/2018 16:00,80,0.69,80-85
11/4/2018 17:00,97,0.76,95-100
11/4/2018 20:00,95,0.84,95-100
11/4/2018 22:00,92,0.83,90-95
11/4/2018 23:00,85,0.81,85-90
11/5/2018 0:00,79,0.83,75-80
11/5/2018 1:00,76,0.82,75-80
11/5/2018 2:00,76,0.77,75-80
11/5/2018 3:00,55,0.87,55-60
11/5/2018 4:00,48,0.93,45-50
11/5/2018 5:00,68,0.83,65-70
11/5/2018 6:00,68,0.89,65-70
11/5/2018 7:00,75,0.77,75-80
11/5/2018 8:00,78,0.77,75-80
11/5/2018 10:00,95,0.70,95-100
11/5/2018 11:00,94,0.77,90-95
11/5/2018 12:00,89,0.77,85-90
11/6/2018 10:00,68,0.72,65-70
11/6/2018 17:00,50,0.53,50-55
11/7/2018 0:00,44,0.73,40-45
11/7/2018 5:00,46,0.94,45-50
11/7/2018 6:00,42,0.88,40-45
11/7/2018 8:00,59,0.74,55-60
11/7/2018 9:00,53,0.71,50-55
11/7/2018 10:00,65,0.73,65-70
11/7/2018 11:00,54,0.82,50-55
11/7/2018 12:00,44,0.86,40-45
11/7/2018 13:00,44,0.80,40-45
11/7/2018 16:00,40,0.74,40-45
11/7/2018 17:00,60,0.72,60-65
11/7/2018 18:00,68,0.73,65-70
11/7/2018 19:00,58,0.78,55-60
11/7/2018 20:00,62,0.83,60-65
11/7/2018 21:00,70,0.81,70-75
11/7/2018 22:00,52,0.79,50-55
11/7/2018 23:00,41,0.85,40-45
11/8/2018 8:00,44,0.66,40-45
11/8/2018 10:00,49,0.75,45-50
11/8/2018 13:00,41,0.76,40-45
11/8/2018 17:00,59,0.63,55-60
11/8/2018 20:00,52,0.70,50-55
11/8/2018 21:00,48,0.80,45-50
11/8/2018 22:00,54,0.79,50-55
11/9/2018 0:00,48,0.79,45-50
11/9/2018 1:00,43,0.82,40-45
11/9/2018 2:00,47,0.71,45-50
11/9/2018 8:00,47,0.67,45-50
11/9/2018 10:00,72,0.70,70-75
11/9/2018 11:00,78,0.71,75-80
11/9/2018 12:00,68,0.81,65-70
11/9/2018 13:00,59,0.76,55-60
11/9/2018 14:00,53,0.71,50-55
11/9/2018 15:00,52,0.72,50-55
11/9/2018 16:00,57,0.74,55-60
11/9/2018 18:00,72,0.82,70-75
11/9/2018 19:00,97,0.77,95-100
11/9/2018 20:00,70,0.82,70-75
11/9/2018 21:00,97,0.74,95-100
11/9/2018 22:00,83,0.84,80-85
11/9/2018 23:00,43,0.90,40-45
11/10/2018 0:00,58,0.81,55-60
11/10/2018 1:00,43,0.94,40-45
11/10/2018 2:00,76,0.76,75-80
11/10/2018 5:00,42,0.84,40-45
11/10/2018 6:00,45,0.95,45-50
11/10/2018 7:00,42,0.96,40-45
11/10/2018 8:00,73,0.78,70-75
11/10/2018 9:00,82,0.81,80-85
11/10/2018 10:00,88,0.78,85-90
11/10/2018 11:00,83,0.81,80-85
11/10/2018 12:00,83,0.80,80-85
11/10/2018 13:00,71,0.85,70-75
11/10/2018 14:00,55,0.82,55-60
11/10/2018 17:00,61,0.61,60-65
11/10/2018 18:00,47,0.73,45-50
11/10/2018 19:00,41,0.76,40-45
11/10/2018 20:00,43,0.77,40-45
11/10/2018 21:00,74,0.78,70-75
11/10/2018 22:00,56,0.86,55-60
11/10/2018 23:00,46,0.73,45-50
11/11/2018 0:00,48,0.82,45-50
11/11/2018 1:00,45,0.86,45-50
11/11/2018 8:00,68,0.71,65-70
11/11/2018 9:00,79,0.81,75-80
11/11/2018 10:00,54,0.85,50-55
11/11/2018 11:00,57,0.79,55-60
11/11/2018 12:00,62,0.85,60-65
11/11/2018 13:00,59,0.78,55-60
11/11/2018 18:00,65,0.77,65-70
11/11/2018 21:00,50,0.86,50-55
11/11/2018 23:00,45,0.87,45-50
11/12/2018 2:00,52,0.82,50-55
11/12/2018 6:00,63,0.75,60-65
11/12/2018 7:00,49,0.88,45-50
11/12/2018 8:00,55,0.74,55-60
11/12/2018 9:00,83,0.71,80-85
11/12/2018 10:00,77,0.77,75-80
11/12/2018 11:00,49,0.85,45-50
11/12/2018 12:00,55,0.79,55-60
11/12/2018 13:00,58,0.83,55-60
11/12/2018 14:00,40,0.94,40-45
11/12/2018 15:00,40,0.84,40-45
11/12/2018 17:00,44,0.85,40-45
11/12/2018 18:00,46,0.98,45-50
11/12/2018 19:00,94,0.80,90-95
11/12/2018 20:00,75,0.80,75-80
11/12/2018 21:00,46,0.78,45-50
11/12/2018 22:00,45,0.84,45-50
11/12/2018 23:00,46,0.78,45-50
11/13/2018 0:00,69,0.76,65-70
11/13/2018 1:00,40,0.95,40-45
11/13/2018 3:00,45,0.87,45-50
11/13/2018 4:00,63,0.98,60-65
11/13/2018 7:00,57,0.87,55-60
11/13/2018 8:00,70,0.77,70-75
11/13/2018 9:00,76,0.85,75-80
11/13/2018 10:00,82,0.83,80-85
11/13/2018 11:00,74,0.85,70-75
11/13/2018 12:00,62,0.83,60-65
11/13/2018 14:00,45,0.84,45-50
11/13/2018 15:00,50,0.86,50-55
11/13/2018 16:00,71,0.76,70-75
11/14/2018 0:00,89,0.94,85-90
11/14/2018 1:00,70,0.94,70-75
11/14/2018 2:00,71,0.93,70-75
11/14/2018 3:00,57,0.90,55-60
11/14/2018 4:00,58,0.90,55-60
11/14/2018 5:00,55,0.83,55-60
11/14/2018 8:00,87,0.88,85-90
11/14/2018 9:00,88,0.84,85-90
11/14/2018 10:00,97,0.83,95-100
11/14/2018 11:00,69,0.91,65-70
11/14/2018 12:00,68,0.84,65-70
11/14/2018 13:00,43,0.97,40-45
11/14/2018 17:00,45,0.68,45-50
11/14/2018 23:00,55,0.82,55-60
11/15/2018 0:00,49,0.77,45-50
11/15/2018 1:00,47,0.86,45-50
11/15/2018 2:00,41,0.95,40-45
11/15/2018 8:00,42,0.65,40-45
11/15/2018 9:00,71,0.73,70-75
11/15/2018 10:00,73,0.80,70-75
11/15/2018 11:00,74,0.86,70-75
11/15/2018 12:00,74,0.91,70-75
11/15/2018 21:00,51,0.82,50-55
11/15/2018 22:00,86,0.85,85-90
11/15/2018 23:00,56,0.86,55-60
11/16/2018 0:00,59,0.79,55-60
11/19/2018 14:00,47,0.78,45-50
11/19/2018 15:00,44,0.86,40-45
11/19/2018 16:00,52,0.87,50-55
11/19/2018 17:00,68,0.84,65-70
11/19/2018 18:00,75,0.81,75-80
11/19/2018 19:00,74,0.88,70-75
11/19/2018 20:00,78,0.92,75-80
11/19/2018 21:00,73,0.97,70-75
11/19/2018 22:00,76,0.90,75-80
11/19/2018 23:00,64,0.97,60-65
11/20/2018 0:00,61,0.96,60-65
11/20/2018 1:00,59,0.95,55-60
11/20/2018 2:00,52,0.95,50-55
11/20/2018 9:00,41,0.70,40-45
11/20/2018 10:00,43,0.70,40-45
11/20/2018 11:00,48,0.72,45-50
11/20/2018 12:00,56,0.72,55-60
11/20/2018 13:00,71,0.72,70-75
11/20/2018 14:00,88,0.71,85-90
11/20/2018 15:00,96,0.74,95-100
11/20/2018 16:00,97,0.74,95-100
11/20/2018 21:00,66,0.79,65-70
11/20/2018 22:00,61,0.84,60-65
11/20/2018 23:00,71,0.73,70-75
11/21/2018 0:00,77,0.77,75-80
11/21/2018 1:00,68,0.71,65-70
11/21/2018 2:00,66,0.78,65-70
11/21/2018 3:00,65,0.75,65-70
11/21/2018 4:00,65,0.79,65-70
11/21/2018 5:00,42,0.74,40-45
11/21/2018 6:00,43,0.71,40-45
11/21/2018 7:00,47,0.74,45-50
11/21/2018 8:00,58,0.61,55-60
11/21/2018 9:00,55,0.72,55-60
11/21/2018 10:00,69,0.59,65-70
11/21/2018 11:00,55,0.71,55-60
11/21/2018 12:00,46,0.67,45-50
11/21/2018 13:00,48,0.69,45-50
11/21/2018 14:00,66,0.66,65-70
11/21/2018 15:00,62,0.71,60-65
11/21/2018 16:00,81,0.66,80-85
11/21/2018 17:00,63,0.77,60-65
11/21/2018 18:00,64,0.69,60-65
11/21/2018 19:00,78,0.65,75-80
11/21/2018 20:00,77,0.66,75-80
11/21/2018 21:00,80,0.69,80-85
11/21/2018 22:00,65,0.73,65-70
11/21/2018 23:00,58,0.68,55-60
11/22/2018 0:00,70,0.71,70-75
11/22/2018 1:00,71,0.67,70-75
11/22/2018 2:00,67,0.63,65-70
11/22/2018 3:00,67,0.64,65-70
11/22/2018 4:00,67,0.61,65-70
11/22/2018 5:00,58,0.64,55-60
11/22/2018 6:00,54,0.64,50-55
11/22/2018 7:00,54,0.67,50-55
11/22/2018 8:00,58,0.65,55-60
11/22/2018 9:00,60,0.60,60-65
11/22/2018 10:00,64,0.60,60-65
11/22/2018 11:00,60,0.64,60-65
11/22/2018 12:00,78,0.60,75-80
11/22/2018 13:00,79,0.65,75-80
11/22/2018 14:00,61,0.67,60-65
11/22/2018 15:00,45,0.69,45-50
11/22/2018 16:00,69,0.70,65-70
11/22/2018 17:00,67,0.71,65-70
11/22/2018 18:00,75,0.77,75-80
11/22/2018 19:00,83,0.74,80-85
11/22/2018 20:00,58,0.83,55-60
11/22/2018 21:00,66,0.65,65-70
11/22/2018 22:00,44,0.74,40-45
11/23/2018 15:00,46,0.74,45-50
11/23/2018 16:00,51,0.74,50-55
11/23/2018 17:00,72,0.70,70-75
11/23/2018 23:00,63,0.93,60-65
11/24/2018 0:00,42,0.80,40-45
11/24/2018 1:00,46,0.79,45-50
11/24/2018 4:00,43,0.62,40-45
11/24/2018 8:00,40,0.68,40-45
11/24/2018 9:00,48,0.65,45-50
11/24/2018 10:00,61,0.67,60-65
11/24/2018 11:00,77,0.67,75-80
11/24/2018 12:00,90,0.65,90-95
11/24/2018 13:00,88,0.70,85-90
11/25/2018 15:00,64,0.87,60-65
11/26/2018 5:00,49,0.71,45-50
11/26/2018 6:00,48,0.71,45-50
11/26/2018 7:00,60,0.66,60-65
11/26/2018 8:00,67,0.63,65-70
11/26/2018 10:00,46,0.57,45-50
11/26/2018 18:00,49,0.68,45-50
11/26/2018 19:00,54,0.72,50-55
11/26/2018 20:00,57,0.74,55-60
11/26/2018 21:00,46,0.68,45-50
11/26/2018 22:00,45,0.68,45-50
11/26/2018 23:00,49,0.70,45-50
11/27/2018 8:00,51,0.62,50-55
11/27/2018 9:00,48,0.63,45-50
11/27/2018 10:00,68,0.56,65-70
11/27/2018 12:00,58,0.58,55-60
11/27/2018 13:00,95,0.64,95-100
11/27/2018 14:00,91,0.81,90-95
11/27/2018 15:00,41,0.79,40-45
11/30/2018 17:00,45,1.16,45-50
11/30/2018 18:00,44,1.12,40-45
11/30/2018 19:00,80,1.02,80-85
11/30/2018 20:00,78,1.08,75-80
11/30/2018 21:00,84,1.10,80-85
11/30/2018 22:00,90,1.11,90-95
12/1/2018 3:00,82,1.18,80-85
12/1/2018 4:00,86,1.11,85-90
12/1/2018 5:00,82,1.24,80-85
12/1/2018 6:00,92,1.14,90-95
12/1/2018 7:00,91,1.16,90-95
12/1/2018 9:00,86,1.24,85-90
12/4/2018 19:00,64,1.28,60-65
12/5/2018 9:00,52,0.95,50-55
12/5/2018 17:00,47,1.17,45-50
12/5/2018 18:00,62,1.01,60-65
12/5/2018 19:00,45,1.17,45-50
12/5/2018 20:00,48,1.28,45-50
12/5/2018 21:00,67,1.09,65-70
12/5/2018 22:00,52,1.09,50-55
12/5/2018 23:00,75,1.14,75-80
12/6/2018 0:00,47,1.25,45-50
12/6/2018 8:00,73,0.99,70-75
12/6/2018 10:00,89,1.21,85-90
12/6/2018 11:00,64,1.23,60-65
12/6/2018 12:00,67,1.22,65-70
12/6/2018 13:00,77,1.28,75-80
12/6/2018 14:00,66,1.28,65-70
12/6/2018 15:00,60,1.18,60-65
12/6/2018 16:00,85,1.20,85-90
12/7/2018 5:00,96,1.40,95-100
12/8/2018 15:00,56,1.26,55-60
12/8/2018 20:00,47,1.32,45-50
12/8/2018 21:00,52,1.45,50-55
12/8/2018 22:00,60,1.46,60-65
12/8/2018 23:00,72,1.54,70-75
12/9/2018 0:00,69,1.67,65-70
12/9/2018 1:00,71,1.72,70-75
12/9/2018 2:00,47,1.95,45-50
12/9/2018 3:00,49,1.85,45-50
12/9/2018 12:00,53,1.53,50-55
12/9/2018 13:00,63,1.48,60-65
12/9/2018 14:00,75,1.40,75-80
12/9/2018 15:00,96,1.33,95-100
12/9/2018 18:00,86,1.69,85-90
12/10/2018 0:00,40,1.55,40-45
12/10/2018 1:00,47,1.50,45-50
12/10/2018 2:00,58,1.63,55-60
12/10/2018 3:00,47,1.99,45-50
12/10/2018 4:00,48,1.89,45-50
12/10/2018 6:00,41,1.90,40-45
12/10/2018 7:00,50,1.94,50-55
12/10/2018 8:00,51,2.06,50-55
12/10/2018 9:00,47,2.18,45-50
12/10/2018 10:00,44,2.13,40-45
12/10/2018 16:00,51,1.73,50-55
12/10/2018 17:00,53,2.02,50-55
12/10/2018 18:00,61,1.64,60-65
12/10/2018 19:00,80,1.37,80-85
12/10/2018 20:00,64,1.37,60-65
12/10/2018 21:00,56,1.35,55-60
12/10/2018 22:00,76,1.21,75-80
12/10/2018 23:00,43,1.34,40-45
12/11/2018 0:00,46,1.39,45-50
12/11/2018 1:00,50,1.53,50-55
12/11/2018 12:00,41,1.19,40-45
12/11/2018 13:00,47,1.25,45-50
12/11/2018 14:00,57,1.32,55-60
12/11/2018 15:00,75,1.18,75-80
12/11/2018 16:00,75,1.27,75-80
12/11/2018 17:00,64,1.35,60-65
12/11/2018 18:00,67,1.47,65-70
12/11/2018 19:00,81,1.42,80-85
12/11/2018 20:00,83,1.41,80-85
12/11/2018 21:00,77,1.42,75-80
12/11/2018 22:00,59,1.52,55-60
12/11/2018 23:00,68,1.37,65-70
12/12/2018 0:00,75,1.39,75-80
12/12/2018 1:00,83,1.31,80-85
12/12/2018 2:00,87,1.34,85-90
12/12/2018 3:00,76,1.35,75-80
12/12/2018 4:00,67,1.33,65-70
12/12/2018 5:00,63,1.15,60-65
12/12/2018 6:00,61,1.17,60-65
12/12/2018 7:00,51,1.25,50-55
12/12/2018 10:00,49,1.28,45-50
12/12/2018 11:00,59,1.34,55-60
12/12/2018 12:00,66,1.32,65-70
12/12/2018 13:00,82,1.23,80-85
12/12/2018 14:00,92,1.24,90-95
12/12/2018 15:00,92,1.28,90-95
12/12/2018 18:00,50,1.46,50-55
12/12/2018 19:00,52,1.25,50-55
12/12/2018 20:00,45,1.33,45-50
12/12/2018 21:00,44,1.42,40-45
12/12/2018 22:00,41,1.72,40-45
12/12/2018 23:00,76,1.71,75-80
12/13/2018 0:00,46,1.68,45-50
12/13/2018 1:00,49,1.55,45-50
12/13/2018 2:00,50,1.48,50-55
12/13/2018 3:00,59,1.43,55-60
12/13/2018 4:00,82,1.58,80-85
12/13/2018 5:00,55,1.42,55-60
12/13/2018 6:00,66,1.55,65-70
12/13/2018 7:00,60,1.48,60-65
12/13/2018 8:00,65,1.37,65-70
12/13/2018 9:00,85,1.33,85-90
12/13/2018 10:00,93,1.38,90-95
12/13/2018 11:00,97,1.41,95-100
12/13/2018 18:00,97,1.66,95-100
12/13/2018 19:00,79,1.72,75-80
12/13/2018 20:00,76,1.87,75-80
12/13/2018 21:00,94,1.67,90-95
12/13/2018 22:00,93,2.04,90-95
12/13/2018 23:00,95,1.80,95-100
12/14/2018 1:00,91,1.87,90-95
12/14/2018 2:00,83,1.89,80-85
12/14/2018 3:00,72,2.07,70-75
12/14/2018 4:00,85,1.82,85-90
12/14/2018 5:00,73,1.88,70-75
12/14/2018 6:00,80,1.85,80-85
12/14/2018 7:00,73,1.84,70-75
12/14/2018 8:00,88,1.63,85-90
12/14/2018 9:00,80,1.99,80-85
12/14/2018 15:00,77,2.18,75-80
12/14/2018 19:00,40,1.50,40-45
12/15/2018 11:00,42,1.85,40-45
12/15/2018 14:00,48,1.22,45-50
12/15/2018 15:00,55,1.28,55-60
12/15/2018 16:00,41,1.15,40-45
12/15/2018 17:00,47,1.14,45-50
12/15/2018 18:00,44,1.19,40-45
12/15/2018 20:00,41,1.24,40-45
12/15/2018 21:00,47,1.37,45-50
12/15/2018 22:00,43,1.44,40-45
12/15/2018 23:00,42,1.43,40-45
12/16/2018 0:00,40,1.49,40-45
12/16/2018 16:00,53,1.28,50-55
12/16/2018 17:00,56,1.48,55-60
12/16/2018 18:00,62,1.23,60-65
12/16/2018 19:00,73,1.32,70-75
12/16/2018 21:00,80,1.55,80-85
12/16/2018 22:00,74,1.50,70-75
12/16/2018 23:00,66,1.35,65-70
12/17/2018 0:00,83,1.26,80-85
12/17/2018 7:00,98,1.68,95-100
12/17/2018 9:00,97,1.80,95-100
12/17/2018 11:00,92,1.78,90-95
12/18/2018 0:00,86,2.05,85-90
12/18/2018 1:00,92,1.68,90-95
12/18/2018 2:00,57,1.92,55-60
12/18/2018 3:00,68,1.43,65-70
12/18/2018 7:00,45,1.48,45-50
12/18/2018 8:00,54,1.49,50-55
12/18/2018 9:00,64,1.58,60-65
12/18/2018 10:00,76,1.54,75-80
12/18/2018 11:00,75,1.62,75-80
12/18/2018 12:00,71,1.73,70-75
12/18/2018 13:00,53,1.87,50-55
12/18/2018 14:00,40,1.40,40-45
12/18/2018 15:00,45,1.66,45-50
12/18/2018 16:00,56,1.40,55-60
12/18/2018 17:00,42,1.87,40-45
12/18/2018 18:00,44,1.67,40-45
12/18/2018 19:00,51,1.81,50-55
12/18/2018 20:00,60,1.75,60-65
12/18/2018 21:00,79,1.91,75-80
12/18/2018 22:00,59,2.09,55-60
12/18/2018 23:00,49,1.91,45-50
12/22/2018 3:00,64,1.39,60-65
12/22/2018 4:00,47,1.21,45-50
12/22/2018 9:00,57,0.79,55-60
12/22/2018 10:00,85,0.94,85-90
12/22/2018 13:00,49,1.17,45-50
12/22/2018 15:00,40,1.29,40-45
12/22/2018 17:00,53,0.86,50-55
12/22/2018 22:00,91,1.19,90-95
12/23/2018 2:00,98,1.34,95-100
12/23/2018 3:00,95,1.34,95-100
12/23/2018 5:00,67,1.25,65-70
12/23/2018 7:00,87,1.52,85-90
12/23/2018 8:00,86,1.59,85-90
12/23/2018 11:00,94,1.49,90-95
12/23/2018 14:00,97,1.30,95-100
12/23/2018 19:00,91,1.23,90-95
12/23/2018 21:00,64,1.31,60-65
12/23/2018 23:00,81,1.38,80-85
12/24/2018 0:00,84,1.46,80-85
12/24/2018 1:00,95,1.39,95-100
12/24/2018 2:00,80,1.47,80-85
12/24/2018 3:00,60,1.36,60-65
12/24/2018 4:00,43,1.53,40-45
12/24/2018 8:00,41,0.92,40-45
12/24/2018 9:00,43,1.10,40-45
12/24/2018 10:00,85,0.99,85-90
12/24/2018 12:00,50,0.99,50-55
12/24/2018 13:00,57,1.01,55-60
12/26/2018 16:00,45,1.04,45-50
12/26/2018 17:00,53,1.29,50-55
12/26/2018 18:00,76,1.06,75-80
12/26/2018 19:00,66,1.15,65-70
12/26/2018 20:00,84,1.09,80-85
12/26/2018 21:00,74,1.23,70-75
12/26/2018 22:00,49,1.37,45-50
12/27/2018 0:00,92,1.24,90-95
12/27/2018 1:00,75,1.25,75-80
12/27/2018 2:00,85,1.22,85-90
12/27/2018 3:00,56,1.30,55-60
12/27/2018 4:00,52,1.30,50-55
12/27/2018 5:00,64,1.22,60-65
12/27/2018 6:00,62,1.18,60-65
12/27/2018 7:00,85,1.22,85-90
12/27/2018 8:00,92,1.23,90-95
12/30/2018 15:00,96,1.19,95-100
12/30/2018 17:00,91,1.15,90-95
12/30/2018 23:00,61,1.32,60-65
12/31/2018 0:00,50,1.28,50-55
12/31/2018 10:00,40,1.02,40-45
12/31/2018 11:00,42,1.03,40-45
12/31/2018 18:00,48,1.12,45-50
12/31/2018 23:00,42,1.06,40-45
1/1/2019 1:00,40,1.09,40-45
1/1/2019 17:00,65,1.07,65-70
1/1/2019 18:00,50,1.53,50-55
1/1/2019 19:00,50,1.31,50-55
1/1/2019 20:00,43,1.12,40-45
1/1/2019 21:00,71,0.99,70-75
1/1/2019 22:00,51,1.02,50-55
1/1/2019 23:00,46,1.10,45-50
1/2/2019 0:00,43,1.31,40-45
1/2/2019 1:00,40,1.31,40-45
1/2/2019 2:00,47,1.24,45-50
1/2/2019 3:00,40,1.28,40-45
1/2/2019 4:00,42,1.27,40-45
1/2/2019 5:00,69,1.13,65-70
1/2/2019 6:00,67,1.29,65-70
1/2/2019 7:00,72,1.31,70-75
1/2/2019 8:00,70,1.21,70-75
1/2/2019 9:00,69,1.26,65-70
1/2/2019 10:00,70,1.23,70-75
1/2/2019 11:00,72,1.19,70-75
1/2/2019 12:00,56,1.24,55-60
1/2/2019 13:00,51,1.24,50-55